[[{"header":{"parameterUnit":"m.s-1","parameterCategory":2,"la1":30.2991,"la2":30.254,"lo1":-89.0895,"lo2":-89.0444,"dy":0.0017,"dx":0.0017,"nx":28,"ny":28,"refTime":"2023-08-31T03:00:00:Z","depth":"0","parameterNumber":2,"parameterNumberName":"U-component_of_CURRENTS"},"data":[0,0,0,0,0,0,0,0,0,0,0,0,0,0,0,0,0,0,0,0,0,0,0,0,0,0,0,0,0,0,0,0,0,0,0,0,0,0,0,0,0,0,0,0,0,0,0,0,0,0,0,0,0,0,0,0,0,0,0.2545,0.2545,0,0.2555,0.2555,0.2555,0.2543,0.2542,0.2542,0.2542,0.2529,0.2529,0.2529,0,0,0,0,0,0,0,0,0,0,0,0,0,0.2542,0.2542,0.2545,0.2545,0.2545,0.2555,0.2555,0.2555,0.2543,0.2542,0.2542,0.2542,0.2529,0.2529,0.2529,0,0,0,0,0,0,0,0,0,0,0,0,0,0.2545,0.2542,0.2545,0.2542,0.2542,0.2555,0.2555,0.2555,0.2543,0.2542,0.2542,0.2542,0.2529,0.2529,0.2529,0.2536,0,0,0.2529,0.2528,0,0,0,0,0,0,0,0,0.2545,0.2545,0.2542,0.2542,0.2542,0.2549,0.255,0.2549,0.2543,0.254,0.2542,0.2541,0.2535,0.2535,0.2535,0.2536,0.2535,0.2529,0.2528,0.2528,0.2528,0,0,0,0,0,0,0,0.2545,0.2545,0.2547,0.2542,0.2543,0.255,0.255,0.255,0.2538,0.254,0.254,0.2545,0.2535,0.2535,0.2534,0.2535,0.2529,0.2528,0.2528,0.2528,0.2572,0.2573,0,0,0,0,0,0,0.2547,0.2544,0.2546,0.2547,0.2545,0.2551,0.255,0.2546,0.2538,0.2538,0.2545,0.2544,0.2535,0.2535,0.2534,0.2569,0.2528,0.2528,0.2528,0.2571,0.2572,0.2574,0,0,0,0,0,0,0.2546,0.2546,0.2546,0.2548,0.2549,0.2551,0.2546,0.2546,0.2548,0.2543,0.2541,0.2548,0.2535,0.2534,0.2543,0.2567,0.2528,0.2528,0.2569,0.2571,0.2573,0.2622,0,0,0,0,0,0,0.2546,0.2546,0.2543,0.2548,0.2549,0.2559,0.2547,0.2547,0.2553,0.2552,0.2545,0.2543,0.2535,0.2543,0.2543,0.2566,0.2528,0.2568,0.257,0.2573,0.2618,0.2625,0.263,0,0,0,0,0,0.2546,0.2539,0.2542,0.2543,0.2545,0.256,0.2561,0.256,0.2554,0.2559,0.2557,0.2543,0.2558,0.2544,0.2543,0.2567,0.2567,0.257,0.2572,0.2616,0.2624,0.263,0,0,0,0,0,0,0.2528,0.2538,0.2541,0.2535,0.2552,0.2559,0.2562,0.2564,0.2566,0.2564,0.2554,0.2553,0.2576,0.2564,0.2548,0.2588,0.2562,0.2565,0.2596,0.2603,0.2609,0.2626,0.2528,0,0,0,0,0,0.2526,0.2528,0.2542,0.254,0.2549,0.2558,0.2563,0.2567,0.2572,0.2572,0.257,0.2572,0.2588,0.2587,0.2596,0.2609,0.262,0.2626,0.2632,0.2637,0.2652,0.2686,0.2697,0.2583,0.2583,0.2583,0,0,0.2517,0.2525,0.2524,0.2538,0.2548,0.257,0.256,0.2573,0.2593,0.2571,0.2591,0.2595,0.2598,0.2622,0.263,0.2611,0.2678,0.2641,0.2645,0.2657,0.269,0.2701,0.2711,0.2585,0.2585,0.2584,0,0,0.2513,0.2512,0.2519,0.2538,0.2562,0.2575,0.2582,0.2597,0.2606,0.2626,0.2626,0.2646,0.2651,0.2668,0.2675,0.2718,0.2714,0.2718,0.2754,0.2787,0.2797,0.2806,0.2842,0.2853,0.2713,0.2713,0.2713,0,0.2506,0.2516,0.2525,0.2545,0.2564,0.2581,0.2604,0.2621,0.2637,0.2652,0.2638,0.268,0.2679,0.2725,0.2743,0.2734,0.2751,0.2724,0.2796,0.2804,0.2812,0.2847,0.2859,0.2716,0.2716,0.2715,0.2715,0,0.2513,0.2528,0.2536,0.2572,0.2593,0.2614,0.2646,0.2666,0.2678,0.2697,0.2741,0.2747,0.2773,0.2778,0.2773,0.2834,0.2829,0.2805,0.2777,0.2827,0.286,0.2872,0.272,0.2719,0.2718,0.2717,0,0,0.2483,0.2534,0.2537,0.2563,0.261,0.2628,0.2671,0.2716,0.2757,0.277,0.282,0.2847,0.2854,0.2865,0.2866,0.2892,0.2964,0.2874,0.2875,0.2911,0.3046,0.3051,0.3063,0.295,0.2952,0.2954,0.305,0,0.2492,0.2536,0.2558,0.2604,0.2635,0.2668,0.2712,0.2755,0.2795,0.285,0.2868,0.2919,0.2887,0.2912,0.2934,0.2966,0.2996,0.2941,0.2993,0.2995,0.2992,0.3078,0.3043,0.3127,0.3061,0.3063,0.3064,0,0.2494,0.2529,0.2575,0.2638,0.2653,0.2683,0.2761,0.2806,0.2886,0.2922,0.2969,0.2991,0.3049,0.301,0.308,0.3046,0.3056,0.3067,0.307,0.3067,0.3021,0.3065,0.315,0.3099,0.3082,0.3081,0.3079,0,0.2479,0.2536,0.2576,0.2597,0.2673,0.2696,0.2739,0.2822,0.2875,0.2979,0.3018,0.3088,0.3129,0.3153,0.3172,0.3136,0.3248,0.3194,0.3207,0.3207,0.3186,0.3181,0.3229,0.3247,0.3247,0.3247,0.3247,0,0.2484,0.2512,0.2571,0.2594,0.265,0.2698,0.2769,0.2832,0.2927,0.2988,0.3051,0.311,0.3166,0.3222,0.3223,0.327,0.3288,0.3247,0.3244,0.3203,0.3198,0.3157,0.3107,0.3251,0.325,0.3249,0.3248,0,0.247,0.2505,0.2559,0.263,0.2647,0.2692,0.2776,0.283,0.292,0.3003,0.3035,0.3155,0.3242,0.3289,0.3363,0.3341,0.3304,0.3383,0.3339,0.3329,0.3273,0.3227,0.3105,0.3007,0.342,0.3421,0.3421,0,0.2469,0.2496,0.2577,0.2602,0.2632,0.2692,0.2731,0.2827,0.288,0.3012,0.3043,0.3175,0.3262,0.3398,0.3428,0.3479,0.3337,0.3441,0.3361,0.3301,0.3248,0.3053,0.2964,0.3355,0.3356,0.3356,0.3356,0,0.2477,0.2508,0.2551,0.2605,0.2641,0.269,0.2742,0.2777,0.2875,0.2941,0.3048,0.3142,0.3309,0.3391,0.3482,0.3486,0.3304,0.3443,0.3396,0.323,0.3007,0.2902,0.326,0.3357,0.3357,0.3357,0.3356,0.3356,0.248,0.251,0.2559,0.2601,0.264,0.2665,0.267,0.2726,0.2792,0.2861,0.2986,0.309,0.3295,0.3446,0.3428,0.3421,0.3305,0.3351,0.3312,0.3128,0.2994,0.3363,0.344,0.344,0.3441,0.3441,0.3441,0,0.2474,0.25,0.2543,0.2584,0.2593,0.2626,0.2654,0.2638,0.2664,0.2789,0.2875,0.3063,0.3195,0.3311,0.3425,0.3336,0.3122,0.324,0.2976,0.2902,0.328,0.3242,0.3263,0.3263,0.3263,0.3263,0.3263,0.3263,0.2471,0.2495,0.251,0.2513,0.2527,0.2495,0.2484,0.2484,0.2544,0.262,0.272,0.2834,0.311,0.331,0.3321,0.3242,0.2977,0.2855,0.2766,0.309,0.3096,0.3102,0.3057,0.3039,0.3039,0.2294,0.2289,0.2285]},{"header":{"parameterUnit":"m.s-1","parameterCategory":2,"la1":30.2991,"la2":30.254,"lo1":-89.0895,"lo2":-89.0444,"dy":0.0017,"dx":0.0017,"nx":28,"ny":28,"refTime":"2023-08-31T03:00:00:Z","depth":"0","parameterNumber":3,"parameterNumberName":"V-component_of_CURRENTS"},"data":[0,0,0,0,0,0,0,0,0,0,0,0,0,0,0,0,0,0,0,0,0,0,0,0,0,0,0,0,0,0,0,0,0,0,0,0,0,0,0,0,0,0,0,0,0,0,0,0,0,0,0,0,0,0,0,0,0,0,-0.0053,-0.0053,0,-0.0093,-0.0094,-0.0095,-0.013,-0.013,-0.013,-0.013,-0.0201,-0.0203,-0.0205,0,0,0,0,0,0,0,0,0,0,0,0,0,-0.0047,-0.0046,-0.0053,-0.0053,-0.0054,-0.0093,-0.0094,-0.0095,-0.013,-0.013,-0.013,-0.013,-0.0201,-0.0203,-0.0205,0,0,0,0,0,0,0,0,0,0,0,0,0,-0.0066,-0.0046,-0.0053,-0.0075,-0.0077,-0.0093,-0.0094,-0.0095,-0.013,-0.013,-0.013,-0.0131,-0.02,-0.0203,-0.0205,-0.0214,0,0,-0.0213,-0.0214,0,0,0,0,0,0,0,0,-0.0065,-0.0066,-0.0071,-0.0073,-0.0076,-0.0105,-0.0118,-0.0136,-0.0129,-0.0111,-0.013,-0.0131,-0.0171,-0.0176,-0.0185,-0.0217,-0.022,-0.0213,-0.0214,-0.0216,-0.0216,0,0,0,0,0,0,0,-0.0063,-0.0065,-0.0071,-0.0071,-0.0074,-0.0096,-0.0099,-0.0122,-0.0141,-0.0113,-0.0115,-0.0117,-0.0172,-0.0182,-0.0187,-0.0221,-0.0213,-0.0215,-0.0217,-0.0218,-0.0256,-0.0256,0,0,0,0,0,0,-0.0052,-0.0063,-0.007,-0.0072,-0.0069,-0.0095,-0.0099,-0.0097,-0.014,-0.0146,-0.0116,-0.0118,-0.0178,-0.0184,-0.0189,-0.0189,-0.0216,-0.0218,-0.0219,-0.0257,-0.0256,-0.0256,0,0,0,0,0,0,-0.0052,-0.0052,-0.0068,-0.0068,-0.0071,-0.0095,-0.0093,-0.0097,-0.0105,-0.0142,-0.0149,-0.0118,-0.0178,-0.0186,-0.0205,-0.0192,-0.0219,-0.0221,-0.0257,-0.0256,-0.0256,-0.0197,0,0,0,0,0,0,-0.0051,-0.0052,-0.0047,-0.0067,-0.007,-0.0068,-0.0092,-0.0098,-0.0104,-0.0107,-0.0145,-0.0152,-0.0179,-0.0201,-0.0207,-0.0196,-0.0223,-0.0258,-0.0257,-0.0256,-0.0199,-0.0194,-0.019,0,0,0,0,0,-0.0051,-0.0038,-0.0046,-0.0047,-0.0063,-0.0068,-0.0072,-0.0092,-0.0104,-0.0101,-0.0129,-0.0151,-0.0199,-0.0202,-0.021,-0.02,-0.0258,-0.0257,-0.0256,-0.0202,-0.0195,-0.019,0,0,0,0,0,0,-0.003,-0.004,-0.005,-0.0041,-0.005,-0.0073,-0.0071,-0.0086,-0.0106,-0.011,-0.0148,-0.0157,-0.0168,-0.0192,-0.0194,-0.0208,-0.0231,-0.0232,-0.0187,-0.0182,-0.0177,-0.0158,-0.0225,0,0,0,0,0,-0.0023,-0.0018,-0.0032,-0.0024,-0.0027,-0.0049,-0.0054,-0.0066,-0.0085,-0.0095,-0.0121,-0.0149,-0.017,-0.0182,-0.0205,-0.0213,-0.024,-0.0211,-0.0206,-0.0202,-0.0191,-0.0227,-0.0225,-0.0252,-0.0252,-0.0252,0,0,-0.0014,-0.0018,-0.0016,-0.002,-0.0031,-0.0022,-0.0053,-0.0054,-0.0048,-0.0099,-0.0102,-0.0134,-0.0169,-0.0178,-0.0185,-0.0196,-0.0207,-0.02,-0.0196,-0.0188,-0.0226,-0.0223,-0.0221,-0.0251,-0.0251,-0.0252,0,0,0.0014,0.0005,0.002,0.0018,0.0011,-0.0,0.0003,-0.0015,-0.0025,-0.0034,-0.0068,-0.0092,-0.0123,-0.0146,-0.0161,-0.0143,-0.0181,-0.0149,-0.0109,-0.0144,-0.0142,-0.0141,-0.0168,-0.0169,-0.0146,-0.0146,-0.0146,0,0.0025,0.0044,0.0024,0.0041,0.0047,0.0015,0.0038,0.0023,0.0001,-0.0002,-0.0026,-0.0071,-0.0107,-0.0115,-0.0111,-0.0132,-0.0155,-0.0128,-0.0137,-0.0137,-0.0136,-0.0165,-0.0167,-0.0143,-0.0143,-0.0143,-0.0144,0,0.0065,0.008,0.009,0.0101,0.0106,0.0118,0.0103,0.0099,0.0079,0.0064,0.0047,-0.0006,-0.003,-0.0048,-0.0076,-0.0084,-0.0102,-0.0128,-0.0151,-0.013,-0.0161,-0.0165,-0.0138,-0.0139,-0.014,-0.0141,0,0,0.0092,0.0114,0.0118,0.0138,0.0141,0.0152,0.0162,0.0165,0.0181,0.0137,0.0149,0.0094,0.0063,0.0043,-0.0,-0.0035,-0.006,-0.0074,-0.0077,-0.0097,-0.013,-0.0127,-0.0131,-0.0088,-0.0089,-0.0089,-0.0152,0,0.0129,0.0177,0.0177,0.0225,0.025,0.0233,0.025,0.0247,0.0236,0.0237,0.0173,0.0164,0.0099,0.0089,0.0043,-0.0029,-0.0067,-0.004,-0.015,-0.0153,-0.015,-0.0134,-0.0098,-0.015,-0.0156,-0.0157,-0.0157,0,0.017,0.0199,0.0252,0.0294,0.0304,0.0325,0.0356,0.037,0.0358,0.0349,0.0321,0.0272,0.022,0.0158,0.004,0.0061,-0.0025,-0.0092,-0.0097,-0.0114,-0.0156,-0.0173,-0.0157,-0.03,-0.0163,-0.0163,-0.0162,0,0.0204,0.0254,0.0301,0.0314,0.0351,0.0372,0.0393,0.0403,0.0442,0.0425,0.0442,0.0362,0.0338,0.0213,0.0074,0.0055,-0.0056,-0.0103,-0.0182,-0.0183,-0.0184,-0.0184,-0.0314,-0.0188,-0.0188,-0.0188,-0.0188,0,0.0246,0.0284,0.032,0.0346,0.0411,0.0421,0.0491,0.0497,0.0536,0.0595,0.0506,0.0535,0.035,0.0264,0.0113,-0.0031,-0.0029,-0.0166,-0.0196,-0.0162,-0.0159,-0.0309,-0.0409,-0.0191,-0.019,-0.019,-0.0189,0,0.0275,0.0296,0.0356,0.0405,0.0428,0.0477,0.057,0.0629,0.0643,0.0717,0.0717,0.0671,0.0562,0.0372,0.0184,0.0042,-0.0199,-0.017,-0.011,-0.0132,-0.0345,-0.0441,-0.0603,-0.0688,-0.0272,-0.0272,-0.0272,0,0.0294,0.0327,0.0401,0.045,0.0477,0.0556,0.0621,0.0676,0.0759,0.0813,0.0864,0.0787,0.0775,0.0505,0.023,-0.0028,-0.0195,-0.0174,-0.0211,-0.0342,-0.0473,-0.0537,-0.0602,-0.0194,-0.0193,-0.0193,-0.0193,0,0.0338,0.036,0.0416,0.0514,0.0591,0.0691,0.0793,0.0881,0.0954,0.1032,0.113,0.1127,0.0869,0.0658,0.0293,0.0094,-0.0275,-0.0174,-0.0331,-0.0435,-0.0492,-0.0591,-0.0167,-0.0189,-0.019,-0.019,-0.019,-0.019,0.0375,0.0425,0.0502,0.0598,0.0695,0.083,0.0934,0.1066,0.1226,0.1374,0.1347,0.1401,0.1052,0.0579,0.0274,-0.023,-0.0266,-0.037,-0.0479,-0.0532,-0.0606,-0.0166,-0.0209,-0.0209,-0.021,-0.021,-0.021,0,0.0434,0.0496,0.0586,0.0718,0.0841,0.0875,0.1058,0.1185,0.1397,0.1545,0.1647,0.1546,0.1101,0.0607,-0.0076,-0.0445,-0.0606,-0.0656,-0.0749,-0.0807,-0.0424,-0.0411,-0.0473,-0.0473,-0.0473,-0.0473,-0.0472,-0.0472,0.0473,0.0571,0.062,0.0826,0.0924,0.1103,0.1216,0.1408,0.1563,0.1792,0.1882,0.1897,0.1563,0.034,-0.0527,-0.0766,-0.1028,-0.1074,-0.1237,-0.0982,-0.0963,-0.0946,-0.0956,-0.1131,-0.1132,-0.1549,-0.1553,-0.1556]}],[{"header":{"parameterUnit":"m.s-1","parameterCategory":2,"la1":30.2991,"la2":30.254,"lo1":-89.0895,"lo2":-89.0444,"dy":0.0017,"dx":0.0017,"nx":28,"ny":28,"refTime":"2023-08-31T03:00:00:Z","depth":"2","parameterNumber":2,"parameterNumberName":"U-component_of_CURRENTS"},"data":[0,0,0,0,0,0,0,0,0,0,0,0,0,0,0,0,0,0,0,0,0,0,0,0,0,0,0,0,0,0,0,0,0,0,0,0,0,0,0,0,0,0,0,0,0,0,0,0,0,0,0,0,0,0,0,0,0,0,0.2255,0.2255,0,0.2283,0.2283,0.2283,0.2286,0.2286,0.2286,0.2286,0.2294,0.2294,0.2295,0,0,0,0,0,0,0,0,0,0,0,0,0,0.2219,0.222,0.2255,0.2255,0.2256,0.2283,0.2283,0.2283,0.2286,0.2286,0.2286,0.2286,0.2294,0.2294,0.2295,0,0,0,0,0,0,0,0,0,0,0,0,0,0.2238,0.222,0.2255,0.2262,0.2263,0.2283,0.2283,0.2283,0.2286,0.2286,0.2286,0.2285,0.2294,0.2294,0.2295,0.2301,0,0,0.2296,0.2296,0,0,0,0,0,0,0,0,0.2237,0.2239,0.226,0.2262,0.2263,0.2282,0.2274,0.2289,0.2286,0.2275,0.2286,0.2285,0.229,0.229,0.2294,0.2301,0.2302,0.2296,0.2296,0.2297,0.2297,0,0,0,0,0,0,0,0.2235,0.2238,0.2264,0.2261,0.2262,0.2269,0.2271,0.2277,0.2281,0.2276,0.2277,0.2283,0.229,0.2293,0.2294,0.2302,0.2296,0.2297,0.2297,0.2297,0.2355,0.2356,0,0,0,0,0,0,0.2235,0.2237,0.2263,0.2265,0.2251,0.227,0.2272,0.2275,0.2282,0.2283,0.2283,0.2283,0.2292,0.2293,0.2294,0.2337,0.2297,0.2297,0.2297,0.2354,0.2355,0.2356,0,0,0,0,0,0,0.2234,0.2237,0.2262,0.2253,0.2257,0.2271,0.2274,0.2275,0.2286,0.2288,0.2288,0.2293,0.2292,0.2293,0.231,0.2335,0.2297,0.2298,0.2352,0.2354,0.2356,0.2399,0,0,0,0,0,0,0.2233,0.2237,0.2241,0.2253,0.2258,0.2281,0.2274,0.2276,0.2291,0.2291,0.2296,0.2296,0.2292,0.2309,0.231,0.2335,0.2298,0.2351,0.2353,0.2355,0.2396,0.2402,0.2408,0,0,0,0,0,0.2232,0.2234,0.2241,0.2244,0.2262,0.2282,0.2285,0.2292,0.2291,0.23,0.2306,0.2297,0.2325,0.231,0.2311,0.2337,0.2349,0.2352,0.2355,0.2394,0.2401,0.2408,0,0,0,0,0,0,0.2216,0.2235,0.2242,0.2249,0.227,0.2283,0.2293,0.2299,0.231,0.2312,0.2308,0.2309,0.2338,0.233,0.2314,0.2362,0.2338,0.2341,0.2367,0.2374,0.2379,0.2392,0.2299,0,0,0,0,0,0.2217,0.2226,0.2247,0.2254,0.2266,0.2282,0.2292,0.23,0.2312,0.2317,0.2322,0.2331,0.235,0.2355,0.2367,0.2386,0.2395,0.2406,0.2411,0.2416,0.2428,0.246,0.247,0.2366,0.2366,0.2366,0,0,0.2212,0.2225,0.223,0.2253,0.2268,0.2291,0.2287,0.2308,0.2329,0.2316,0.2343,0.2353,0.2361,0.2389,0.2401,0.2385,0.2452,0.242,0.2424,0.2433,0.2464,0.2474,0.2483,0.2367,0.2367,0.2367,0,0,0.2212,0.2223,0.2234,0.2254,0.2284,0.2299,0.2308,0.2331,0.2345,0.2371,0.2376,0.2401,0.2416,0.2435,0.2444,0.2487,0.2485,0.2491,0.2525,0.2556,0.2565,0.2572,0.2602,0.2613,0.2489,0.2489,0.2489,0,0.2209,0.2224,0.2241,0.2261,0.228,0.2305,0.2327,0.2349,0.2375,0.2393,0.2385,0.2437,0.2442,0.2488,0.2507,0.2502,0.2517,0.2496,0.2563,0.2571,0.2579,0.2607,0.2618,0.2491,0.2491,0.2491,0.2491,0,0.2217,0.2236,0.2247,0.2283,0.2306,0.2329,0.2365,0.2392,0.2411,0.2433,0.2483,0.2497,0.2529,0.2537,0.2535,0.2595,0.259,0.257,0.2545,0.2592,0.2619,0.2629,0.2495,0.2494,0.2493,0.2493,0,0,0.2193,0.2243,0.2247,0.2269,0.2319,0.2337,0.2385,0.2432,0.2475,0.2499,0.255,0.2585,0.2599,0.2612,0.262,0.2646,0.2712,0.2634,0.2634,0.2662,0.2787,0.276,0.2769,0.2704,0.2705,0.2707,0.2787,0,0.2198,0.2233,0.226,0.2301,0.2325,0.2368,0.2413,0.246,0.2508,0.2566,0.2594,0.2648,0.2626,0.2657,0.268,0.2713,0.2741,0.2693,0.2739,0.2741,0.271,0.278,0.2578,0.263,0.2797,0.2799,0.28,0,0.2197,0.2223,0.2258,0.2318,0.2333,0.2365,0.2446,0.2493,0.2582,0.2624,0.268,0.271,0.2771,0.2741,0.2811,0.2782,0.2793,0.2805,0.2807,0.2776,0.2734,0.261,0.2642,0.2817,0.2816,0.2814,0.2813,0,0.2165,0.222,0.2247,0.2266,0.2338,0.2369,0.2417,0.2507,0.256,0.2675,0.2722,0.2792,0.2839,0.2865,0.289,0.2861,0.2961,0.2917,0.2902,0.2899,0.2733,0.2714,0.2965,0.2965,0.2965,0.2965,0.2965,0,0.2154,0.2174,0.2236,0.2249,0.2298,0.2357,0.2429,0.2498,0.2602,0.2667,0.2749,0.281,0.2874,0.2928,0.2931,0.2961,0.2993,0.2933,0.2928,0.2744,0.2725,0.2884,0.2874,0.2968,0.2967,0.2967,0.2966,0,0.2114,0.2151,0.2186,0.2257,0.2283,0.232,0.2423,0.2478,0.2588,0.268,0.2718,0.2845,0.2929,0.2979,0.3047,0.3018,0.3046,0.3041,0.2828,0.2797,0.2952,0.2943,0.3039,0.3038,0.3038,0.3038,0.3038,0,0.2094,0.2108,0.2178,0.2197,0.223,0.2296,0.2342,0.246,0.2521,0.2684,0.2716,0.285,0.2923,0.3031,0.3031,0.306,0.3073,0.2867,0.2773,0.2979,0.2964,0.2955,0.2946,0.2568,0.2564,0.2561,0.2559,0,0.2062,0.2089,0.2116,0.2157,0.2198,0.2246,0.232,0.2357,0.2493,0.2578,0.2696,0.2778,0.2909,0.2872,0.2925,0.2895,0.2849,0.2804,0.3082,0.2587,0.2544,0.2526,0.2532,0.253,0.2533,0.2535,0.2537,0.2538,0.2036,0.2049,0.2086,0.2118,0.2153,0.2177,0.2182,0.2262,0.2337,0.2428,0.2576,0.2634,0.2704,0.2699,0.2626,0.2573,0.2757,0.262,0.2626,0.2636,0.2573,0.2533,0.2506,0.2509,0.2511,0.2513,0.2515,0,0.2012,0.2034,0.2047,0.2069,0.2058,0.2113,0.2149,0.2127,0.2162,0.2297,0.239,0.2266,0.2273,0.2321,0.222,0.2233,0.2163,0.2122,0.201,0.2044,0.2073,0.1975,0.1752,0.1749,0.1746,0.1743,0,0,0.2004,0.2,0.2001,0.1969,0.1977,0.1938,0.1932,0.1913,0.1969,0.1985,0.2024,0.2215,0.2312,0.2012,0.1981,0.1852,0.1921,0.1779,0.2407,0.2315,0.2339,0.2397,0.2292,0,0,0,0,0]},{"header":{"parameterUnit":"m.s-1","parameterCategory":2,"la1":30.2991,"la2":30.254,"lo1":-89.0895,"lo2":-89.0444,"dy":0.0017,"dx":0.0017,"nx":28,"ny":28,"refTime":"2023-08-31T03:00:00:Z","depth":"2","parameterNumber":3,"parameterNumberName":"V-component_of_CURRENTS"},"data":[0,0,0,0,0,0,0,0,0,0,0,0,0,0,0,0,0,0,0,0,0,0,0,0,0,0,0,0,0,0,0,0,0,0,0,0,0,0,0,0,0,0,0,0,0,0,0,0,0,0,0,0,0,0,0,0,0,0,0.0075,0.0075,0,0.0033,0.0033,0.0032,-0.0001,-0.0001,-0.0001,-0.0001,-0.0068,-0.0069,-0.0071,0,0,0,0,0,0,0,0,0,0,0,0,0,0.0096,0.0096,0.0075,0.0075,0.0074,0.0033,0.0033,0.0032,-0.0001,-0.0001,-0.0001,-0.0001,-0.0067,-0.0069,-0.0071,0,0,0,0,0,0,0,0,0,0,0,0,0,0.0073,0.0096,0.0075,0.0054,0.0052,0.0033,0.0033,0.0032,-0.0001,-0.0001,-0.0001,-0.0001,-0.0066,-0.0069,-0.0071,-0.008,0,0,-0.0078,-0.0079,0,0,0,0,0,0,0,0,0.0074,0.0072,0.0057,0.0055,0.0053,0.0022,0.0016,-0.0006,-0.0001,0.0018,-0.0001,-0.0002,-0.0039,-0.0043,-0.0052,-0.0083,-0.0086,-0.0079,-0.008,-0.0081,-0.0082,0,0,0,0,0,0,0,0.0076,0.0073,0.0057,0.0057,0.0054,0.0036,0.0033,0.0011,-0.001,0.0016,0.0014,0.0012,-0.004,-0.005,-0.0054,-0.0087,-0.0078,-0.0081,-0.0082,-0.0083,-0.0122,-0.0122,0,0,0,0,0,0,0.0086,0.0075,0.0058,0.0056,0.0065,0.0036,0.0032,0.0031,-0.0009,-0.0015,0.0012,0.001,-0.0046,-0.0051,-0.0056,-0.0057,-0.0081,-0.0083,-0.0085,-0.0123,-0.0122,-0.0122,0,0,0,0,0,0,0.0086,0.0085,0.006,0.0065,0.0061,0.0037,0.0036,0.0031,0.0023,-0.0012,-0.0018,0.0009,-0.0046,-0.0053,-0.0071,-0.006,-0.0084,-0.0086,-0.0123,-0.0123,-0.0122,-0.0066,0,0,0,0,0,0,0.0087,0.0085,0.0088,0.0066,0.0061,0.0057,0.0036,0.003,0.0022,0.002,-0.0016,-0.0023,-0.0047,-0.0067,-0.0074,-0.0064,-0.0088,-0.0124,-0.0123,-0.0122,-0.0069,-0.0064,-0.006,0,0,0,0,0,0.0088,0.0097,0.0088,0.0086,0.0066,0.0058,0.0054,0.0034,0.0023,0.0024,-0.0002,-0.0022,-0.0067,-0.0069,-0.0076,-0.0067,-0.0124,-0.0123,-0.0122,-0.0071,-0.0065,-0.006,0,0,0,0,0,0,0.0107,0.0094,0.0084,0.0088,0.0077,0.0053,0.0053,0.0039,0.0019,0.0016,-0.0019,-0.0027,-0.0039,-0.0061,-0.0062,-0.0077,-0.0098,-0.0099,-0.0056,-0.0051,-0.0047,-0.0028,-0.009,0,0,0,0,0,0.0113,0.0116,0.0099,0.0102,0.0099,0.0076,0.007,0.0058,0.0039,0.003,0.0004,-0.0022,-0.0041,-0.0052,-0.0074,-0.0082,-0.011,-0.0081,-0.0076,-0.0073,-0.0063,-0.01,-0.0098,-0.0119,-0.0119,-0.0119,0,0,0.012,0.0114,0.0114,0.0106,0.0095,0.0102,0.0072,0.0068,0.0074,0.0025,0.0022,-0.0008,-0.004,-0.0049,-0.0056,-0.0066,-0.0081,-0.0072,-0.0068,-0.006,-0.0099,-0.0097,-0.0096,-0.0118,-0.0119,-0.0119,0,0,0.0143,0.0132,0.0144,0.0141,0.0132,0.0121,0.0123,0.0104,0.0094,0.0085,0.0053,0.003,0.0,-0.002,-0.0034,-0.0019,-0.0057,-0.0026,0.0012,-0.0025,-0.0023,-0.0023,-0.0053,-0.0055,-0.0023,-0.0022,-0.0022,0,0.0152,0.0168,0.0146,0.0161,0.0168,0.0135,0.0156,0.0142,0.0118,0.0116,0.0093,0.0048,0.0016,0.0007,0.0011,-0.0009,-0.0034,-0.0005,-0.0019,-0.0018,-0.0019,-0.005,-0.0053,-0.002,-0.002,-0.002,-0.0021,0,0.0187,0.0201,0.0209,0.0219,0.0222,0.0234,0.0218,0.0213,0.0193,0.0178,0.016,0.011,0.0086,0.0069,0.0044,0.0034,0.0014,-0.001,-0.003,-0.0013,-0.0047,-0.0052,-0.0016,-0.0017,-0.0018,-0.0018,0,0,0.0206,0.023,0.0234,0.0256,0.0257,0.0267,0.0275,0.0277,0.029,0.0247,0.0255,0.0204,0.0172,0.0154,0.0113,0.0078,0.0049,0.004,0.0037,0.0014,-0.0027,-0.0036,-0.0043,0.0021,0.0021,0.0021,-0.005,0,0.0242,0.0291,0.029,0.0338,0.0365,0.0347,0.0361,0.0356,0.0342,0.0338,0.0277,0.0266,0.0207,0.0196,0.0151,0.0078,0.0041,0.0071,-0.0044,-0.0047,-0.0054,-0.0047,-0.0024,-0.0085,-0.0055,-0.0056,-0.0056,0,0.0279,0.0312,0.0368,0.041,0.0419,0.0438,0.0464,0.0476,0.0457,0.0444,0.0413,0.0365,0.0311,0.0255,0.0136,0.0158,0.0076,0.001,0.0005,-0.0024,-0.0064,-0.0098,-0.0094,-0.0064,-0.0063,-0.0063,-0.0062,0,0.0315,0.0366,0.0417,0.0432,0.0469,0.0487,0.0504,0.0507,0.0539,0.0516,0.0525,0.0445,0.0413,0.0296,0.0158,0.0146,0.0023,-0.0013,-0.01,-0.0102,-0.0114,-0.0116,-0.0097,-0.0097,-0.0097,-0.0096,-0.0096,0,0.0359,0.0399,0.0439,0.0467,0.0531,0.0538,0.06,0.0601,0.0625,0.067,0.0586,0.0596,0.0421,0.0328,0.0189,0.0038,0.0043,-0.0088,-0.012,-0.0094,-0.0093,-0.0101,-0.01,-0.0099,-0.0099,-0.0098,-0.0098,0,0.0392,0.0415,0.0481,0.0531,0.0551,0.06,0.0675,0.0724,0.0727,0.0781,0.0778,0.0711,0.0588,0.0409,0.0222,0.0092,-0.0061,-0.0117,-0.0071,-0.0095,-0.0171,-0.0167,-0.0223,-0.0224,-0.0225,-0.0225,-0.0226,0,0.0414,0.0451,0.0532,0.0579,0.0604,0.0678,0.0732,0.0772,0.0834,0.0858,0.0891,0.0796,0.0748,0.0472,0.0219,-0.0025,-0.0058,-0.016,-0.0182,-0.0158,-0.0184,-0.0178,-0.0173,-0.0181,-0.0181,-0.0181,-0.0181,0,0.0461,0.0487,0.0546,0.0644,0.0712,0.0803,0.0883,0.0948,0.0996,0.104,0.1081,0.1047,0.0784,0.0547,0.021,0.0045,-0.0122,-0.0169,-0.016,-0.0146,-0.0122,-0.0146,-0.0142,-0.0182,-0.0182,-0.0182,-0.0181,-0.0181,0.0495,0.0548,0.0624,0.0718,0.0806,0.0916,0.0996,0.1083,0.1191,0.1256,0.1224,0.118,0.0896,0.0477,0.0181,-0.013,-0.012,-0.0227,-0.0225,-0.0223,-0.0199,-0.0178,-0.0243,-0.0243,-0.0243,-0.0244,-0.0244,0,0.0544,0.0603,0.0693,0.081,0.0915,0.0953,0.1092,0.1169,0.1292,0.135,0.1382,0.1131,0.0861,0.0534,0.0074,-0.0197,-0.0221,-0.028,-0.025,-0.0247,-0.0245,-0.0222,-0.0272,-0.0273,-0.0274,-0.0274,0,0,0.0572,0.0662,0.0711,0.088,0.0967,0.111,0.1194,0.1298,0.1372,0.1431,0.1419,0.1359,0.0967,0.0633,0.0254,-0.0008,-0.0063,-0.0059,-0.0007,0.0076,0.0082,-0.0186,-0.0142,0,0,0,0,0]}],[{"header":{"parameterUnit":"m.s-1","parameterCategory":2,"la1":30.2991,"la2":30.254,"lo1":-89.0895,"lo2":-89.0444,"dy":0.0017,"dx":0.0017,"nx":28,"ny":28,"refTime":"2023-08-31T03:00:00:Z","depth":"4","parameterNumber":2,"parameterNumberName":"U-component_of_CURRENTS"},"data":[0,0,0,0,0,0,0,0,0,0,0,0,0,0,0,0,0,0,0,0,0,0,0,0,0,0,0,0,0,0,0,0,0,0,0,0,0,0,0,0,0,0,0,0,0,0,0,0,0,0,0,0,0,0,0,0,0,0,0.1481,0.1481,0,0.1549,0.155,0.155,0.1605,0.1606,0.1607,0.1607,0.1683,0.1684,0.1686,0,0,0,0,0,0,0,0,0,0,0,0,0,0.1397,0.1398,0.148,0.1482,0.1483,0.1549,0.155,0.155,0.1605,0.1606,0.1607,0.1608,0.1683,0.1684,0.1686,0,0,0,0,0,0,0,0,0,0,0,0,0,0.1444,0.1398,0.148,0.1519,0.1523,0.1549,0.155,0.1551,0.1605,0.1606,0.1607,0.1608,0.1682,0.1684,0.1686,0.1677,0,0,0.1692,0.1693,0,0,0,0,0,0,0,0,0.1442,0.1447,0.1512,0.1516,0.1521,0.1571,0.1548,0.1594,0.1605,0.1572,0.1608,0.1609,0.1647,0.1652,0.166,0.1681,0.1684,0.1692,0.1694,0.1695,0.1695,0,0,0,0,0,0,0,0.1438,0.1445,0.1506,0.1513,0.1519,0.1533,0.1541,0.1557,0.1601,0.1575,0.158,0.159,0.1649,0.1658,0.1662,0.1685,0.1692,0.1694,0.1695,0.1696,0.18,0.1802,0,0,0,0,0,0,0.1432,0.1442,0.1504,0.1508,0.1485,0.1534,0.1542,0.1553,0.1601,0.161,0.1589,0.1592,0.1654,0.1659,0.1665,0.1745,0.1695,0.1696,0.1698,0.1799,0.1801,0.1802,0,0,0,0,0,0,0.143,0.1437,0.1501,0.1478,0.1487,0.1534,0.1545,0.1554,0.1595,0.1612,0.1621,0.1625,0.1655,0.1662,0.1709,0.1745,0.1697,0.1699,0.1797,0.1799,0.1801,0.1849,0,0,0,0,0,0,0.1427,0.1436,0.1456,0.1477,0.1488,0.1536,0.1545,0.1554,0.1598,0.1604,0.1645,0.1652,0.1656,0.1706,0.1711,0.1747,0.1701,0.1795,0.1798,0.1801,0.1846,0.1853,0.1859,0,0,0,0,0,0.1424,0.1441,0.1457,0.1466,0.151,0.1537,0.1545,0.158,0.1599,0.1621,0.1652,0.1652,0.1728,0.1709,0.1714,0.1752,0.1794,0.1797,0.1801,0.1843,0.1851,0.1859,0,0,0,0,0,0,0.1417,0.1449,0.1467,0.1495,0.1525,0.1548,0.1576,0.1596,0.1638,0.1654,0.1668,0.1676,0.1733,0.1734,0.1712,0.1791,0.1762,0.1767,0.1793,0.1801,0.1807,0.1809,0.1702,0,0,0,0,0,0.1424,0.1448,0.1477,0.1503,0.1521,0.1554,0.1577,0.1601,0.1632,0.1654,0.1682,0.1715,0.1745,0.1767,0.1792,0.183,0.1834,0.186,0.1866,0.1872,0.1878,0.1912,0.1922,0.1814,0.1814,0.1814,0,0,0.1429,0.145,0.1466,0.1505,0.1533,0.1561,0.1571,0.1614,0.1647,0.1654,0.1716,0.1742,0.1762,0.181,0.1835,0.1819,0.1907,0.1876,0.1881,0.1884,0.1917,0.1927,0.1936,0.1816,0.1816,0.1815,0,0,0.1438,0.1472,0.1493,0.1519,0.1567,0.1587,0.1606,0.1649,0.1683,0.1735,0.1754,0.1801,0.1845,0.1869,0.1884,0.1941,0.1942,0.1956,0.1992,0.2025,0.2034,0.2042,0.2065,0.2074,0.1958,0.1958,0.1958,0,0.1448,0.1474,0.1504,0.153,0.1557,0.1602,0.163,0.1667,0.1723,0.1753,0.1765,0.1852,0.1872,0.1928,0.1954,0.1957,0.1973,0.1958,0.2033,0.2041,0.2048,0.207,0.208,0.1961,0.1961,0.196,0.196,0,0.146,0.1496,0.1512,0.1559,0.1593,0.1627,0.1676,0.1726,0.1772,0.1804,0.1883,0.1917,0.1968,0.1986,0.199,0.2058,0.2052,0.2038,0.201,0.2062,0.2081,0.2091,0.1965,0.1964,0.1963,0.1963,0,0,0.1442,0.1509,0.1518,0.1545,0.1613,0.1636,0.1704,0.1766,0.1821,0.188,0.1946,0.2005,0.2035,0.2055,0.2075,0.2106,0.2174,0.2102,0.2102,0.212,0.2251,0.2116,0.2113,0.2177,0.2179,0.2181,0.2244,0,0.1448,0.1489,0.1529,0.1582,0.1608,0.1673,0.173,0.1796,0.1864,0.1941,0.1991,0.2065,0.2058,0.2105,0.2134,0.2173,0.2202,0.2159,0.2202,0.2203,0.2073,0.212,0.2187,0.2251,0.2253,0.2255,0.2256,0,0.1442,0.1473,0.1519,0.1594,0.1615,0.1662,0.1765,0.1824,0.1935,0.1994,0.2072,0.2119,0.2197,0.2181,0.2259,0.2236,0.2251,0.2265,0.2268,0.213,0.2085,0.2188,0.2273,0.2271,0.227,0.2269,0.2268,0,0.1392,0.1466,0.1502,0.1527,0.1619,0.1669,0.1733,0.1844,0.1907,0.2044,0.2108,0.2193,0.2259,0.2292,0.2328,0.2309,0.2399,0.237,0.2258,0.2249,0.2329,0.232,0.2416,0.2416,0.2416,0.2416,0.2416,0,0.1362,0.1395,0.1489,0.1506,0.1569,0.1651,0.1743,0.1825,0.1952,0.2025,0.2137,0.2201,0.2294,0.235,0.236,0.2337,0.2424,0.2271,0.2257,0.2348,0.2341,0.2336,0.2326,0.2418,0.2418,0.2417,0.2417,0,0.1292,0.1355,0.1399,0.1503,0.1544,0.1592,0.1735,0.1799,0.1938,0.2043,0.2094,0.2232,0.2306,0.237,0.2437,0.2367,0.2367,0.2335,0.2442,0.2432,0.2187,0.2179,0.2211,0.2206,0.2203,0.22,0.2197,0,0.1255,0.1271,0.1376,0.1412,0.1466,0.156,0.1626,0.1776,0.1845,0.2035,0.2067,0.2202,0.2275,0.2262,0.2334,0.2345,0.2315,0.2297,0.2224,0.2184,0.2168,0.2165,0.2162,0.2192,0.2191,0.219,0.2189,0,0.1178,0.1227,0.1263,0.1335,0.1408,0.1476,0.1585,0.1621,0.1793,0.1933,0.2006,0.2055,0.2134,0.2176,0.2209,0.2206,0.2298,0.2259,0.2266,0.2197,0.2161,0.2148,0.2149,0.2177,0.2178,0.218,0.218,0,0.1125,0.1131,0.1191,0.1247,0.1325,0.1366,0.1439,0.1526,0.1611,0.1823,0.1838,0.1983,0.2112,0.2105,0.2129,0.2126,0.2086,0.2007,0.2025,0.204,0.1952,0.188,0.1803,0,0,0,0,0,0.1062,0.1064,0.1103,0.1154,0.1223,0.1275,0.1397,0.1477,0.1642,0.1651,0.1744,0.1813,0.1868,0.1936,0.1897,0.2038,0.2083,0.1982,0.1998,0.2108,0.2122,0.2034,0,0,0,0,0,0,0.1023,0.1048,0.1064,0.1062,0.1084,0.1154,0.1227,0.134,0.1358,0.153,0.157,0.1702,0.1779,0.1874,0.1862,0.1882,0.1855,0.2074,0.2069,0.21,0.2113,0.2124,0.2038,0,0,0,0,0]},{"header":{"parameterUnit":"m.s-1","parameterCategory":2,"la1":30.2991,"la2":30.254,"lo1":-89.0895,"lo2":-89.0444,"dy":0.0017,"dx":0.0017,"nx":28,"ny":28,"refTime":"2023-08-31T03:00:00:Z","depth":"4","parameterNumber":3,"parameterNumberName":"V-component_of_CURRENTS"},"data":[0,0,0,0,0,0,0,0,0,0,0,0,0,0,0,0,0,0,0,0,0,0,0,0,0,0,0,0,0,0,0,0,0,0,0,0,0,0,0,0,0,0,0,0,0,0,0,0,0,0,0,0,0,0,0,0,0,0,0.0106,0.0106,0,0.0078,0.0078,0.0078,0.0057,0.0057,0.0057,0.0057,0.0009,0.0008,0.0007,0,0,0,0,0,0,0,0,0,0,0,0,0,0.0124,0.0123,0.0106,0.0106,0.0106,0.0078,0.0078,0.0077,0.0057,0.0057,0.0057,0.0057,0.001,0.0008,0.0007,0,0,0,0,0,0,0,0,0,0,0,0,0,0.0107,0.0123,0.0106,0.0093,0.0092,0.0079,0.0078,0.0077,0.0057,0.0057,0.0057,0.0057,0.001,0.0008,0.0007,-0.0002,0,0,0.0001,0.0,0,0,0,0,0,0,0,0,0.0108,0.0106,0.0095,0.0094,0.0092,0.0072,0.0067,0.005,0.0057,0.0069,0.0057,0.0057,0.0029,0.0026,0.002,-0.0004,-0.0006,0.0001,-0.0,-0.0001,-0.0001,0,0,0,0,0,0,0,0.0109,0.0107,0.0094,0.0095,0.0093,0.0082,0.008,0.0063,0.0049,0.0068,0.0067,0.0065,0.0028,0.0022,0.0018,-0.0007,0.0001,-0.0,-0.0002,-0.0002,-0.0035,-0.0035,0,0,0,0,0,0,0.0116,0.0109,0.0095,0.0094,0.0101,0.0082,0.0079,0.0078,0.005,0.0046,0.0065,0.0064,0.0025,0.0021,0.0017,0.0017,-0.0001,-0.0002,-0.0003,-0.0035,-0.0035,-0.0035,0,0,0,0,0,0,0.0116,0.0115,0.0096,0.0101,0.0098,0.0082,0.0081,0.0077,0.0073,0.0048,0.0043,0.0064,0.0024,0.0019,0.0006,0.0015,-0.0003,-0.0005,-0.0035,-0.0035,-0.0035,0.0011,0,0,0,0,0,0,0.0117,0.0115,0.0118,0.0102,0.0098,0.0095,0.0081,0.0077,0.0072,0.0071,0.0045,0.0041,0.0024,0.0009,0.0005,0.0012,-0.0006,-0.0035,-0.0035,-0.0035,0.0009,0.0012,0.0015,0,0,0,0,0,0.0117,0.0123,0.0118,0.0117,0.0102,0.0095,0.0092,0.008,0.0072,0.0074,0.0056,0.0042,0.0008,0.0008,0.0002,0.001,-0.0036,-0.0035,-0.0035,0.0007,0.0012,0.0015,0,0,0,0,0,0,0.013,0.0121,0.0116,0.0117,0.011,0.0092,0.0093,0.0083,0.007,0.0069,0.0043,0.0038,0.0029,0.0012,0.0012,0.0001,-0.0016,-0.0017,0.0018,0.0022,0.0025,0.004,-0.0008,0,0,0,0,0,0.0135,0.0138,0.0126,0.0127,0.0125,0.011,0.0105,0.0098,0.0084,0.0078,0.006,0.0041,0.0027,0.0019,0.0002,-0.0004,-0.0028,-0.0003,-0.0,0.0003,0.0012,-0.0024,-0.0023,-0.0033,-0.0033,-0.0033,0,0,0.014,0.0136,0.0137,0.0131,0.0123,0.013,0.0107,0.0105,0.0111,0.0075,0.0075,0.0051,0.0027,0.0021,0.0016,0.0008,-0.0007,0.0004,0.0006,0.0013,-0.0024,-0.0023,-0.0022,-0.0033,-0.0033,-0.0033,0,0,0.0155,0.0149,0.0158,0.0157,0.0152,0.0144,0.0146,0.0132,0.0126,0.0121,0.0098,0.008,0.0058,0.0043,0.0032,0.0043,0.0011,0.0037,0.0067,0.0033,0.0033,0.0034,0.0004,0.0001,0.004,0.004,0.004,0,0.0162,0.0175,0.0159,0.0171,0.0179,0.0155,0.0172,0.0162,0.0146,0.0145,0.0128,0.0094,0.007,0.0063,0.0067,0.0051,0.0027,0.0056,0.0038,0.0037,0.0037,0.0006,0.0002,0.0042,0.0042,0.0042,0.0041,0,0.0187,0.02,0.0206,0.0217,0.022,0.023,0.022,0.0217,0.0205,0.0194,0.0181,0.0143,0.0125,0.0111,0.0093,0.0082,0.0064,0.0045,0.0029,0.004,0.0007,0.0003,0.0045,0.0044,0.0044,0.0043,0,0,0.0196,0.022,0.0224,0.0244,0.0249,0.0256,0.0265,0.0269,0.028,0.0248,0.0254,0.0217,0.0192,0.0179,0.0146,0.0115,0.0086,0.0084,0.0081,0.0059,0.0012,0.0004,-0.0003,0.0062,0.0062,0.0061,-0.001,0,0.0223,0.0263,0.0266,0.0307,0.0329,0.032,0.0333,0.0332,0.0322,0.0319,0.0271,0.0263,0.022,0.0212,0.0173,0.0109,0.0076,0.0107,0.0002,-0.0001,-0.0007,-0.0007,0.0059,-0.0013,-0.0014,-0.0015,-0.0016,0,0.0248,0.0276,0.0324,0.0364,0.0372,0.0391,0.0415,0.0427,0.0413,0.0402,0.0377,0.034,0.0295,0.0253,0.0148,0.017,0.01,0.0044,0.0039,0.0015,-0.0018,-0.0028,-0.0025,-0.0024,-0.0023,-0.0023,-0.0022,0,0.027,0.0316,0.0361,0.0375,0.0411,0.043,0.0449,0.0453,0.0477,0.0459,0.0463,0.0398,0.0369,0.0272,0.0155,0.0151,0.0033,0.001,-0.0064,-0.0065,-0.0057,-0.0056,-0.0063,-0.0063,-0.0063,-0.0063,-0.0063,0,0.0299,0.0334,0.0378,0.0403,0.0459,0.0471,0.0524,0.0526,0.0545,0.0574,0.0512,0.0507,0.0371,0.0286,0.0174,0.0043,0.0044,-0.0055,-0.0083,-0.0036,-0.0033,-0.006,-0.0059,-0.0065,-0.0065,-0.0064,-0.0064,0,0.0315,0.0342,0.04,0.0452,0.0473,0.0515,0.0583,0.0618,0.0625,0.0658,0.0655,0.0588,0.0473,0.0331,0.017,0.0075,-0.0054,-0.0101,-0.0033,-0.0057,-0.0134,-0.0129,-0.0187,-0.0188,-0.0189,-0.019,-0.019,0,0.0327,0.0359,0.0437,0.0477,0.0504,0.057,0.0616,0.0655,0.0694,0.0705,0.0716,0.0629,0.0558,0.0333,0.0175,-0.0039,-0.0073,-0.0139,-0.0143,-0.0124,-0.0146,-0.0141,-0.0135,-0.0191,-0.0191,-0.0192,-0.0192,0,0.035,0.0379,0.0428,0.051,0.057,0.0645,0.071,0.0744,0.0783,0.0792,0.0768,0.0656,0.0524,0.034,0.0172,0.0017,-0.0096,-0.0148,-0.0147,-0.0151,-0.013,-0.0149,-0.0143,-0.0194,-0.0194,-0.0194,-0.0194,0,0.0364,0.0402,0.0465,0.0538,0.0618,0.069,0.0728,0.077,0.0812,0.0818,0.0808,0.0672,0.0597,0.0369,0.0216,0.006,0.0016,-0.0036,-0.0042,-0.0042,0.0016,0.0065,0.0041,0,0,0,0,0,0.0374,0.0416,0.0485,0.0567,0.0647,0.0696,0.0775,0.0806,0.084,0.0832,0.0825,0.0704,0.0484,0.0393,0.0235,0.0183,-0.0024,-0.0009,-0.0091,-0.0209,-0.0206,-0.0164,0,0,0,0,0,0,0.0381,0.0443,0.0482,0.0577,0.0633,0.0727,0.078,0.0807,0.0802,0.0811,0.0699,0.0658,0.0443,0.0571,0.023,0.0184,0.0108,-0.0106,-0.011,-0.021,-0.0207,-0.0205,-0.0161,0,0,0,0,0]}]]